Weather History for Ishigakijima, Japan

Change the Weather History Date:

Tuesday, March 19, 2013

  Actual Average Record
Temperature  
Mean Temperature 73 °F -  
Max Temperature 79 °F 74 °F 82 °F (1999)
Min Temperature 68 °F 67 °F 60 °F (2003)
Cooling Degree Days 8    
Growing Degree Days 23 (Base 50)    
Moisture  
Dew Point 71 °F    
Average Humidity 87    
Maximum Humidity 97    
Minimum Humidity 70    
Precipitation  
Precipitation 0.00 in - - ()
Sea Level Pressure  
Sea Level Pressure 29.87 in    
Wind  
Wind Speed 7 mph ()    
Max Wind Speed 14 mph    
Max Gust Speed -    
Visibility 4.4 miles    
Events Rain    
Averages and records for this station are not official NWS values.
T = Trace of Precipitation, MM = Missing Value Source: Averaged Metar Reports

Daily Weather History Graph

Daily Weather History Graph

Search for Another Location

Airport:

Trip Planner

Search our weather history database for the weather conditions in past years. The results will help you decide how hot, cold, wet, or windy it might be!

Date:

Astronomy

Mar. 19, 2013 Rise Set
Actual Time 6:48 AM JST 6:53 PM JST
Civil Twilight 6:26 AM JST 7:16 PM JST
Nautical Twilight 5:59 AM JST 7:43 PM JST
Astronomical Twilight 5:33 AM JST 8:09 PM JST
Moon 11:43 AM JST (3/19) 12:38 AM JST (3/19)
Length of Visible Light 12h 50m
Length of Day
12h 05m
Waxing Crescent, 44% of the Moon is Illuminated
Mar 19
Waxing Crescent
Mar 20
First Quarter
Mar 27
Full
Apr 3
Last Quarter
Apr 10
New

Hourly Weather History & Observations

Time (JST) Temp. Dew Point Humidity Pressure Visibility Wind Dir Wind Speed Gust Speed Precip Events Conditions
12:00 AM 69 °F 68 °F 97% 29.88 in - Calm Calm - -  
3:00 AM 70 °F 69 °F 95% 29.87 in 4 mi NNE 5.8 mph - -   Mist
6:00 AM 71 °F 68 °F 89% 29.88 in 4 mi NE 9.2 mph - -   Mist
6:00 AM 71.6 °F 68.0 °F 88% 29.86 in 4.3 mi NNE 8.1 mph - N/A   Mostly Cloudy
7:00 AM 71.6 °F 69.8 °F 94% 29.89 in 6.2 mi NE 10.4 mph - N/A   Mostly Cloudy
8:00 AM 73.4 °F 69.8 °F 88% 29.89 in 4.3 mi ENE 10.4 mph - N/A   Mostly Cloudy
9:00 AM 74 °F 71 °F 88% 29.93 in 4 mi East 10.4 mph - -   Mist
9:00 AM 73.4 °F 69.8 °F 88% 29.92 in 5.0 mi East 11.5 mph - N/A   Mostly Cloudy
10:00 AM 75.2 °F 69.8 °F 83% 29.92 in 5.0 mi East 11.5 mph - N/A   Scattered Clouds
11:00 AM 75.2 °F 69.8 °F 83% 29.92 in 5.0 mi East 10.4 mph - N/A   Mostly Cloudy
12:00 PM 78 °F 70 °F 70% 29.93 in 5 mi East 11.5 mph - -   Partly Cloudy
12:00 PM 77.0 °F 69.8 °F 78% 29.92 in 5.6 mi East 10.4 mph - N/A   Mostly Cloudy
1:00 PM 75.2 °F 69.8 °F 83% 29.89 in 5.0 mi East 11.5 mph - N/A   Mostly Cloudy
2:00 PM 75.2 °F 69.8 °F 83% 29.86 in 5.0 mi East 9.2 mph - N/A   Mostly Cloudy
3:00 PM 76 °F 71 °F 79% 29.86 in 5 mi East 9.2 mph - - Rain Light Rain Showers
3:00 PM 75.2 °F 69.8 °F 83% 29.86 in 5.0 mi East 9.2 mph - N/A   Mostly Cloudy
4:00 PM 75.2 °F 69.8 °F 83% 29.83 in 5.0 mi East 10.4 mph - N/A   Mostly Cloudy
5:00 PM 75.2 °F 71.6 °F 89% 29.83 in 5.0 mi East 9.2 mph - N/A   Mostly Cloudy
5:07 PM 75.2 °F 71.6 °F 89% 29.83 in 5.0 mi East 10.4 mph - N/A   Mostly Cloudy
6:00 PM 76 °F 73 °F 87% 29.84 in 4 mi ENE 9.2 mph - -   Mist
6:00 PM 75.2 °F 71.6 °F 89% 29.83 in 4.3 mi East 9.2 mph - N/A   Mostly Cloudy
7:00 PM 75.2 °F 73.4 °F 94% 29.83 in 3.1 mi ESE 4.6 mph - N/A   Mostly Cloudy
7:44 PM 75.2 °F 73.4 °F 94% 29.83 in 2.5 mi South 5.8 mph - N/A   Mostly Cloudy
8:00 PM 75.2 °F 73.4 °F 94% 29.83 in 2.5 mi South 6.9 mph - N/A   Mostly Cloudy
9:00 PM 76 °F 74 °F 94% 29.88 in 2 mi South 13.8 mph - -   Mist